Wind_Speed
74 73 71 70 69 68 67 66 66 65 65 64 63 63 62 60 59 57 56 54 53 53 54 55 55 55 57 59 60 60 60 59 60 60 61 60 57 54 53 53 53 53 52 51 50 49 48 47 46 46 47 47 46 45 44 43 42 42 43 44 45 46 47 47 47 46 46 45 44 45 46 47 46 46 45 44 44 44 43 42 41 39 38 37 35 34 33
73 73 72 70 69 69 68 68 68 67 66 65 64 63 62 60 59 58 57 56 54 54 55 56 57 58 59 60 60 60 60 60 60 61 61 61 58 54 53 55 56 56 54 53 52 51 50 50 49 49 49 48 47 46 45 44 43 43 44 46 47 48 48 48 48 48 47 46 46 47 48 49 48 48 48 47 46 45 45 44 42 40 39 37 36 34 33
72 71 70 69 69 69 69 68 68 67 66 66 65 64 62 61 60 59 58 57 56 56 57 58 59 59 60 60 60 60 61 62 62 63 62 62 60 59 57 58 58 57 55 53 52 52 52 52 52 51 50 49 47 46 46 45 46 46 45 46 47 49 50 50 50 49 48 47 47 48 49 50 50 51 50 49 47 46 45 44 43 41 39 38 36 34 33
69 69 68 67 68 68 68 67 66 66 65 64 63 62 61 61 60 60 59 57 57 58 59 60 60 60 60 59 59 59 60 62 63 64 64 63 62 63 63 62 60 58 56 54 53 54 54 53 52 51 50 48 47 46 46 46 47 47 47 47 49 50 51 51 51 50 49 48 48 49 49 50 52 52 50 48 47 45 44 43 42 41 39 38 37 35 34
67 66 65 65 66 67 66 65 64 63 62 61 60 59 59 59 59 58 57 56 57 57 58 58 57 57 57 56 56 56 57 60 63 65 65 65 64 64 64 63 61 58 56 55 55 55 55 54 53 52 50 48 47 46 47 47 48 48 49 50 51 52 53 53 51 50 49 48 49 49 49 50 51 50 47 46 44 43 42 41 41 40 39 38 37 35 34
65 65 65 65 66 66 64 63 61 61 60 60 59 59 58 58 56 56 55 55 55 56 55 54 53 53 53 53 53 52 52 54 59 64 66 66 65 64 63 62 60 58 57 57 58 58 57 56 55 54 52 50 48 48 49 50 51 52 52 52 53 54 54 53 52 51 50 49 49 49 48 49 48 45 43 43 43 42 41 41 40 40 39 38 38 36 35
61 62 63 64 63 62 61 61 60 60 60 60 59 59 58 56 55 55 55 54 54 54 53 52 51 51 50 49 48 46 45 47 54 62 65 65 64 63 63 60 58 58 59 59 60 60 60 59 58 56 54 52 52 52 53 54 54 54 54 54 55 55 54 54 53 52 51 50 49 48 49 49 47 44 43 44 44 42 42 42 42 42 40 39 38 38 36
56 58 59 59 58 58 58 58 57 58 58 58 57 56 55 54 54 54 52 51 52 52 50 49 49 48 47 45 45 44 44 47 52 57 60 63 64 63 61 60 59 59 61 62 63 63 62 61 59 57 55 54 54 55 55 55 55 55 54 54 54 54 55 55 54 53 51 49 48 49 50 50 48 47 47 47 45 44 43 43 43 43 42 40 39 39 38
55 56 56 56 56 56 55 55 56 57 56 56 55 54 53 52 52 50 48 48 48 48 46 44 44 45 44 43 44 46 47 48 49 51 54 59 62 62 62 61 61 60 60 63 65 65 64 62 59 57 56 55 55 56 56 55 55 55 54 54 54 55 56 55 54 52 50 49 49 50 50 50 49 49 49 48 45 44 43 42 42 41 41 41 40 39 39
55 55 56 55 55 54 53 54 56 55 54 54 54 53 52 51 49 47 46 46 46 45 43 42 41 41 41 41 43 47 51 52 50 50 51 54 57 60 62 62 62 62 62 63 64 64 62 61 59 58 57 57 57 57 56 56 56 55 55 55 56 56 55 54 53 52 50 50 50 51 51 51 50 49 48 46 44 43 43 43 43 42 41 41 41 41 40
52 53 53 53 53 53 54 54 54 52 52 52 52 52 50 49 47 45 44 44 44 43 42 41 41 40 39 39 42 47 53 57 57 54 53 53 53 55 57 59 60 63 65 64 64 63 62 61 60 59 59 58 58 58 57 57 56 56 56 56 56 56 54 53 52 51 51 52 52 52 53 52 50 48 48 46 44 43 44 45 46 45 44 43 43 42 42
51 51 50 50 51 52 53 53 52 51 50 50 50 49 49 48 47 45 44 44 43 43 42 41 40 39 38 40 44 48 52 57 60 58 55 54 53 53 54 55 57 59 61 61 61 60 60 60 60 60 59 59 58 58 58 58 57 57 57 57 56 55 53 52 52 52 53 53 54 55 54 52 50 49 48 46 45 46 47 47 48 48 47 46 45 44 44
51 50 50 50 51 51 52 51 50 50 50 49 48 49 50 51 50 48 47 46 45 44 43 40 38 37 38 39 40 43 47 51 55 58 59 58 57 56 56 55 55 56 58 58 58 57 56 56 56 57 57 58 58 59 59 59 58 58 57 57 56 54 53 52 53 53 54 55 56 55 53 51 50 50 49 48 49 49 49 49 50 50 49 48 47 45 45
51 50 50 51 50 50 50 49 49 49 50 50 50 51 53 53 50 47 44 43 43 42 40 39 37 36 36 35 36 39 44 48 51 56 61 63 63 62 61 60 58 58 59 59 59 59 59 58 58 58 58 58 59 59 59 59 58 57 56 55 54 54 53 54 54 55 56 57 55 53 51 50 50 50 50 51 51 51 51 51 51 50 50 48 47 46 45
49 49 49 49 49 49 49 48 48 50 51 52 53 54 55 53 48 43 40 38 37 38 38 37 37 36 36 36 38 41 45 48 51 54 58 62 65 66 65 64 63 62 61 61 61 62 62 61 60 59 59 59 59 59 59 58 58 56 55 54 54 54 55 55 56 56 57 56 53 51 50 50 51 51 52 53 53 52 52 51 50 49 48 46 46 46 45
47 47 48 49 49 50 49 48 49 51 53 54 53 53 53 48 41 38 37 35 34 36 36 36 36 37 38 40 43 45 46 47 51 54 57 60 63 65 66 66 66 65 64 64 63 63 63 62 61 60 60 59 59 59 58 58 56 55 54 54 55 55 56 56 57 57 56 54 52 51 51 52 52 53 53 54 53 53 52 51 49 46 45 44 44 45 46
46 47 48 49 50 49 49 49 50 51 52 51 50 50 50 46 39 36 36 35 34 35 34 34 34 36 38 40 44 46 46 46 49 53 56 58 60 61 63 64 64 65 65 65 64 64 63 63 62 61 60 60 59 59 58 57 55 55 55 55 56 56 57 57 57 56 54 52 52 52 53 53 54 54 54 54 53 53 51 49 46 44 43 43 44 45 46
44 45 46 47 47 47 48 48 48 49 48 47 47 48 48 46 43 40 38 36 36 36 34 33 34 35 36 39 43 46 47 47 48 50 53 55 56 57 58 60 61 63 64 64 65 64 64 63 62 61 60 59 58 57 56 55 55 55 55 56 57 57 58 57 56 54 53 53 53 53 53 53 53 53 53 53 53 52 49 47 45 44 43 43 44 45 46
43 44 45 45 45 45 46 46 46 45 45 45 45 47 47 47 45 43 40 37 35 37 37 36 36 35 36 38 41 43 46 47 47 47 49 51 53 54 55 57 59 61 62 63 63 63 62 62 61 60 58 57 56 55 55 56 56 57 57 57 58 57 57 56 55 55 55 54 54 53 52 52 52 53 53 53 51 49 47 45 44 44 44 44 45 45 46
41 43 45 45 45 46 45 45 44 43 43 44 46 48 49 49 47 45 42 39 38 40 41 40 38 37 37 37 38 39 41 43 43 44 45 47 49 51 53 55 56 58 59 60 60 60 60 59 59 57 56 55 55 56 56 57 57 57 57 57 57 56 56 55 55 55 54 53 52 52 52 52 53 53 53 51 49 47 46 45 45 45 45 45 46 46 47
40 42 44 44 44 44 44 43 42 42 42 44 47 49 50 51 50 48 46 44 44 47 46 42 39 39 38 38 37 37 38 39 40 41 43 44 46 47 49 50 52 53 54 55 55 56 56 56 55 55 55 55 56 56 57 57 57 57 57 56 56 55 55 54 53 52 51 51 51 52 53 53 53 52 51 49 47 46 46 46 46 46 47 47 48 48 49
38 40 43 44 45 45 44 44 43 42 43 45 47 49 50 51 52 51 50 48 49 50 48 44 42 42 41 38 37 37 38 39 40 42 44 44 44 45 45 46 47 48 49 50 51 52 52 53 54 54 55 56 57 57 57 57 56 56 55 54 53 52 52 51 50 50 50 51 52 53 53 52 51 49 48 47 47 46 47 47 48 48 49 49 50 51 51
32 35 39 41 43 44 45 45 44 44 45 47 48 48 50 51 51 51 51 50 51 51 49 46 45 44 42 41 39 40 40 40 41 44 46 45 43 43 44 44 46 47 48 49 50 51 53 53 54 54 55 56 56 56 55 54 53 52 51 50 49 49 49 49 50 51 52 53 52 52 50 49 48 48 47 47 47 48 48 49 49 50 50 51 51 52 53
22 26 30 34 37 40 41 42 43 45 46 47 47 48 49 49 49 49 48 48 49 49 47 46 44 43 42 42 41 42 43 43 44 47 49 46 43 43 44 45 46 47 48 49 50 52 52 53 53 53 53 53 52 52 51 50 49 48 48 48 48 49 50 51 52 52 51 50 49 48 48 48 48 48 48 48 48 49 49 50 50 51 51 52 53 54 54
16 19 22 26 30 35 38 39 42 44 45 45 46 47 47 47 47 47 46 46 46 45 44 43 43 42 42 42 42 42 43 45 46 47 48 46 44 44 44 45 46 47 47 48 48 49 49 49 49 50 50 49 49 48 47 47 47 48 49 50 51 51 52 51 50 49 48 47 47 47 48 48 48 49 49 49 49 50 51 51 52 53 53 54 55 56 57
17 17 18 20 22 28 33 38 40 43 44 44 44 44 45 45 45 45 45 44 43 43 42 42 42 42 42 42 42 42 43 44 44 44 44 44 43 42 42 43 44 44 44 45 45 45 46 46 46 46 47 47 47 47 47 48 49 50 51 51 51 50 49 48 47 46 46 47 47 48 48 49 49 50 50 50 51 52 52 53 54 55 56 56 57 58 59
21 21 21 20 20 22 26 31 35 39 41 41 40 40 40 41 41 42 42 42 42 42 42 42 42 42 42 42 42 42 42 42 42 42 42 42 41 41 41 42 42 42 42 43 43 43 43 43 44 45 46 48 49 49 49 50 50 49 48 48 47 47 47 47 47 47 48 48 49 49 50 50 51 51 52 52 53 53 54 55 56 57 57 58 59 59 59
25 25 25 25 25 24 24 26 29 33 35 36 36 36 36 37 37 38 38 39 39 40 41 41 41 42 42 42 42 41 42 42 42 42 42 42 42 42 42 42 42 42 43 43 44 44 44 44 44 46 48 50 50 50 49 48 47 46 45 45 45 46 47 48 49 49 50 50 51 52 52 52 53 53 53 54 54 55 56 57 57 58 58 58 58 58 57
27 28 28 29 29 29 29 28 29 30 32 34 35 35 35 35 35 35 35 36 36 37 38 39 39 40 40 40 41 41 41 41 41 41 41 41 41 42 42 43 43 44 44 45 46 46 46 46 46 47 48 48 48 47 46 45 45 45 46 46 47 47 48 49 51 52 52 53 53 53 54 54 54 55 55 55 56 56 56 56 56 56 56 56 56 55 55
32 32 32 32 32 32 33 33 33 33 33 35 36 37 37 36 36 36 36 36 36 37 38 38 39 40 40 41 41 42 42 41 41 41 41 41 42 43 44 45 45 45 46 46 47 47 47 47 47 47 46 45 45 45 45 45 46 47 48 48 49 49 50 51 52 53 54 54 54 54 55 55 55 54 54 54 54 54 54 54 54 54 54 54 54 54 53
37 37 37 37 36 36 36 36 37 37 38 38 39 39 39 39 39 38 38 38 38 39 39 39 40 40 41 42 42 42 42 42 42 41 41 42 43 44 45 45 45 46 47 47 47 47 47 47 46 45 44 44 44 44 45 46 47 48 49 51 51 51 52 52 53 54 54 54 54 53 53 53 52 52 52 52 52 52 52 53 53 53 53 52 51 50 49
40 41 41 42 42 42 41 41 41 41 41 42 42 42 41 41 41 41 40 40 40 40 40 40 40 41 41 41 41 41 42 42 41 41 41 42 43 44 45 46 46 47 47 47 47 47 47 46 46 45 44 44 45 45 46 47 48 50 51 52 53 53 53 53 53 53 53 52 51 51 50 50 50 51 51 51 51 52 52 52 51 51 50 49 47 46 45
41 42 43 44 45 45 45 45 46 46 46 45 45 44 43 43 43 43 43 43 43 43 43 43 42 42 42 42 42 43 43 42 42 42 42 44 45 46 47 47 48 48 47 46 46 46 46 46 46 46 46 46 46 47 48 49 50 51 52 53 54 53 53 52 52 51 50 49 49 49 50 50 50 51 51 51 51 51 50 49 48 47 46 45 44 44 44
42 43 44 44 45 46 47 48 49 49 49 49 49 48 48 47 46 46 46 46 45 45 45 45 44 44 44 44 44 45 45 45 45 45 45 46 47 48 48 48 47 47 46 46 46 47 47 47 47 47 47 48 49 50 50 51 51 52 53 53 53 53 52 51 50 49 49 49 49 50 51 51 51 51 51 50 49 48 47 46 45 44 44 44 44 43 43
42 43 44 45 47 48 49 50 50 50 50 50 50 50 50 49 49 49 49 49 48 47 47 47 46 46 47 47 47 47 48 48 48 48 47 48 48 49 48 48 48 47 47 47 47 48 48 49 49 49 50 51 51 52 52 52 53 53 53 53 52 51 50 50 50 50 50 50 51 51 51 51 50 49 49 48 47 45 45 44 44 44 43 42 42 41 40
40 42 43 45 47 48 49 50 50 50 51 51 51 52 52 51 51 51 51 51 50 49 49 50 50 50 51 51 51 51 51 50 50 50 49 49 49 49 49 49 49 48 48 48 49 50 51 51 51 52 53 53 53 54 54 54 54 53 52 51 50 50 50 50 51 51 51 51 51 50 49 49 48 47 47 46 46 45 44 43 43 42 41 40 38 37 36
38 40 42 43 45 46 47 48 49 50 51 51 52 53 53 53 53 54 54 53 53 53 53 53 54 54 54 54 54 53 52 52 51 50 50 50 50 51 51 51 51 50 50 51 52 52 53 53 54 54 55 55 55 55 55 54 53 52 51 51 50 50 51 51 51 51 50 49 48 48 47 46 46 45 45 45 44 43 42 41 40 39 38 36 34 33 32
34 36 39 41 42 43 45 46 47 48 49 50 51 53 54 55 55 56 56 56 56 57 57 57 57 57 56 56 55 54 54 53 52 52 52 52 52 53 53 53 53 53 53 54 54 55 55 55 56 56 56 56 56 55 54 53 52 51 51 51 51 50 50 50 49 48 48 47 46 46 45 44 44 43 42 42 41 40 39 37 36 35 34 32 31 30 30
32 34 35 37 39 40 42 43 45 46 47 48 49 51 52 54 55 56 57 58 59 60 59 59 59 58 58 57 57 56 56 55 55 55 55 54 54 54 55 55 55 55 55 55 56 56 56 57 57 57 56 56 55 54 53 52 52 51 51 50 49 48 48 47 46 45 45 44 43 43 42 41 41 40 39 38 37 36 34 33 32 32 31 30 30 29 29
31 32 34 35 36 38 39 41 42 44 44 46 47 48 50 51 52 54 55 57 58 58 58 58 59 59 58 58 58 57 57 57 56 56 56 56 56 56 56 56 56 56 56 56 56 56 56 56 56 56 55 54 53 53 52 51 51 50 49 48 47 46 45 44 43 42 41 41 40 39 38 38 37 36 35 34 33 32 31 30 29 29 30 30 30 30 29
27 28 30 31 32 34 36 37 38 39 40 42 43 44 45 47 48 50 52 53 54 55 55 56 56 56 56 56 56 56 56 56 56 56 56 56 57 57 56 56 56 56 56 56 56 55 55 55 54 54 53 53 52 51 50 49 48 47 46 44 43 42 41 40 39 38 37 37 36 35 35 34 33 32 31 30 30 29 28 28 28 29 29 30 30 29 29
22 23 24 26 27 28 30 31 33 34 35 36 38 39 40 42 43 45 47 49 50 52 52 53 53 53 54 54 54 54 54 54 54 55 55 56 56 56 55 55 55 54 54 54 54 53 53 53 53 52 51 50 49 47 46 45 44 43 42 40 39 38 37 36 35 34 33 33 32 31 30 30 29 29 29 29 29 29 28 29 29 29 30 30 30 30 30
17 18 19 20 21 22 23 24 26 27 28 29 31 32 34 36 39 41 42 44 45 47 48 49 50 51 51 52 52 52 52 53 53 53 54 54 54 53 53 53 53 52 52 52 52 52 51 50 49 48 47 45 44 43 42 41 39 38 37 36 35 34 33 32 31 30 29 29 28 28 27 27 27 27 28 28 29 30 30 30 30 29 29 30 30 31 31
13 14 15 15 16 17 18 18 19 20 21 22 24 26 28 30 32 34 36 38 40 41 43 44 45 46 47 48 49 49 50 50 51 51 51 51 51 51 51 51 51 51 51 50 49 48 47 46 44 43 42 40 39 38 37 35 34 33 32 31 30 29 28 27 27 27 26 26 26 26 27 27 28 28 29 29 30 30 30 30 30 30 30 31 32 32 33
10 11 11 12 12 13 14 15 16 16 17 18 19 20 21 23 25 27 29 31 33 35 37 38 39 41 42 43 44 45 46 47 48 48 49 49 50 49 49 49 48 47 46 45 44 43 42 40 39 37 36 35 34 32 31 30 29 28 27 27 26 26 26 25 25 25 25 26 26 27 27 28 29 30 30 30 30 30 31 31 31 32 32 33 34 35 36
7 8 9 10 11 12 12 13 14 14 15 15 15 16 17 18 20 22 24 26 27 29 31 33 34 36 37 38 39 40 42 43 44 45 45 45 45 45 44 43 42 41 40 39 38 37 35 34 33 32 30 29 28 27 27 26 25 25 25 25 25 25 25 26 26 26 27 27 28 29 29 29 30 30 30 31 31 32 32 33 33 34 35 36 36 37 38
4 5 6 6 7 8 9 10 10 11 12 12 13 13 14 15 17 18 19 21 23 24 26 28 29 31 32 33 34 35 36 37 37 38 38 38 38 37 36 36 35 34 33 32 32 31 30 28 27 26 26 25 25 25 25 24 24 24 25 25 25 26 26 27 28 28 28 29 29 30 30 30 30 31 31 31 32 33 34 35 35 36 37 38 38 39 40
4 5 5 4 4 5 5 6 6 7 8 8 9 10 11 12 14 15 17 18 19 20 22 23 24 25 26 27 28 29 30 30 31 31 31 31 30 30 29 29 28 28 27 26 26 25 25 25 24 24 24 24 24 24 24 24 24 25 25 25 26 26 27 28 28 29 29 29 30 30 30 30 30 31 31 32 32 33 34 35 35 36 37 37 38 38 39
7 7 7 6 6 6 5 5 5 5 5 6 6 7 8 9 10 12 13 14 15 17 18 19 19 20 21 22 22 23 24 24 24 24 24 24 24 24 24 23 23 23 23 23 23 23 23 23 23 23 23 23 23 24 24 24 24 25 25 26 26 27 27 28 28 29 29 29 29 29 30 30 30 30 31 31 31 32 32 33 34 34 35 35 35 36 37
6 7 7 7 7 7 7 7 7 6 6 6 6 7 7 7 8 9 10 11 11 12 13 14 15 15 16 17 17 18 18 19 19 19 19 20 20 20 20 20 21 21 21 21 22 22 22 22 22 22 23 23 23 23 24 24 24 25 25 26 26 26 27 27 27 27 28 28 28 28 28 29 29 29 29 29 29 30 31 31 32 33 33 33 34 35 36
6 6 6 7 7 6 6 7 7 7 7 7 7 7 7 7 8 8 8 9 10 10 11 12 12 13 13 14 15 15 15 16 16 17 17 18 18 19 19 19 19 19 20 20 20 21 21 22 22 23 23 23 23 23 23 23 24 24 24 24 25 25 25 25 25 25 26 26 26 26 26 26 27 27 27 28 28 29 30 31 31 32 33 34 35 36 37
6 6 7 7 7 7 6 6 6 6 6 6 6 6 6 7 7 8 8 8 9 9 10 10 11 11 12 12 13 13 14 14 15 16 16 16 17 17 17 18 18 18 19 19 20 20 21 21 22 22 22 22 22 22 22 22 22 22 22 22 23 23 23 23 23 23 24 24 24 24 25 25 26 26 27 28 29 30 31 32 33 34 34 36 37 38 40
Wind_Direction
218 218 219 220 222 224 226 228 230 232 235 237 240 242 245 247 249 250 250 250 249 247 246 245 245 244 243 244 243 243 242 240 237 235 236 237 238 239 241 242 242 242 241 242 245 247 249 252 253 254 256 258 260 261 263 266 266 266 268 274 279 280 281 282 284 287 288 288 288 288 290 293 293 293 294 294 294 294 292 288 285 284 284 284 282 281 279
219 220 220 222 223 225 227 229 231 233 235 237 239 241 244 246 247 249 249 250 250 249 248 248 248 246 245 244 245 245 245 243 240 237 236 236 236 236 239 240 240 241 241 242 244 247 249 252 253 254 256 258 260 261 263 264 264 267 271 275 277 279 280 281 283 285 286 286 286 287 289 292 294 294 294 294 293 293 291 289 287 285 285 284 282 280 278
220 221 222 223 225 227 228 230 233 235 237 239 241 242 244 245 247 248 248 249 249 249 249 249 249 248 247 245 244 243 242 241 239 238 236 236 235 235 236 237 239 240 242 243 245 247 248 250 251 253 255 257 259 260 262 263 263 267 272 275 277 278 279 280 282 283 284 284 285 287 290 292 294 294 294 292 291 290 289 287 287 286 285 283 282 279 278
220 222 223 224 226 228 230 232 234 236 238 240 242 244 246 246 247 248 249 250 250 250 251 250 249 248 246 244 241 240 239 238 238 237 236 236 235 235 236 237 239 241 243 244 246 247 248 250 251 253 254 256 258 260 262 263 263 266 272 276 277 277 278 280 281 281 282 283 285 287 290 292 293 293 292 290 288 287 286 286 286 286 284 282 280 277 276
220 221 223 224 226 227 229 231 233 236 238 239 241 243 244 245 247 249 250 250 250 250 250 250 250 249 247 244 239 236 234 234 235 235 235 235 235 236 237 238 240 241 243 244 245 247 248 250 252 253 253 255 257 260 262 264 264 267 273 276 276 276 278 279 280 280 281 283 285 287 289 292 293 292 289 287 286 286 286 285 285 285 283 280 278 276 274
220 221 222 224 226 227 228 230 231 233 235 236 238 239 240 242 244 246 247 247 247 247 247 247 247 246 245 243 240 235 232 232 234 235 235 235 236 236 238 239 240 242 243 245 246 248 250 251 252 253 254 256 258 260 263 265 266 269 273 274 275 276 277 278 279 280 280 282 284 285 288 292 293 291 289 288 288 287 287 285 284 284 283 279 276 275 272
221 222 223 225 227 228 228 230 231 233 234 236 237 238 240 241 242 242 243 243 244 244 244 244 243 242 241 240 238 234 229 228 232 234 234 235 236 237 239 240 241 243 245 246 248 249 251 252 253 254 256 258 259 260 263 265 267 270 272 274 275 276 277 278 280 280 280 281 283 284 287 291 291 289 290 291 290 289 288 286 284 283 282 279 276 274 271
220 222 224 225 227 228 229 230 232 233 235 237 238 239 240 240 241 241 241 241 242 244 244 244 243 241 239 236 232 227 222 222 227 231 233 234 235 237 239 240 241 243 245 246 247 249 250 251 253 254 257 259 259 261 263 265 268 270 272 273 274 275 277 279 280 280 281 281 282 285 288 290 289 288 289 290 290 289 288 288 286 283 281 278 275 273 271
218 220 222 223 225 226 228 229 230 232 233 235 236 237 237 237 238 238 238 239 242 244 245 244 242 239 235 232 228 222 217 218 224 229 232 234 235 237 238 238 239 241 244 246 246 248 249 251 252 255 257 259 260 262 264 266 268 270 272 273 274 276 278 279 279 280 280 281 282 286 289 290 288 287 288 288 287 288 288 289 289 287 282 278 274 272 270
219 220 221 222 223 225 226 227 229 230 232 234 234 234 234 234 235 234 235 237 240 243 244 242 240 236 233 229 225 221 216 214 218 224 228 231 235 237 238 238 239 240 242 245 247 249 250 252 253 255 257 259 261 263 265 267 268 270 271 273 275 276 277 278 278 279 279 280 283 286 289 289 287 286 286 286 285 286 288 287 288 288 285 280 275 272 270
221 223 223 224 224 225 225 227 229 230 231 233 234 234 234 233 232 232 234 237 240 242 242 241 238 234 231 227 223 221 217 215 215 218 223 227 232 236 239 239 240 241 242 245 248 250 252 253 254 256 258 260 262 264 265 267 268 270 271 273 275 275 275 276 277 277 278 280 283 286 287 287 286 284 284 284 283 284 286 286 285 286 285 282 277 274 271
223 224 225 226 227 228 228 229 230 230 231 232 233 233 232 230 228 228 230 234 238 239 238 238 236 233 229 225 222 221 220 218 217 217 220 224 227 232 236 239 241 243 244 245 247 249 251 253 254 256 258 260 262 264 266 267 269 270 272 273 274 274 275 275 276 276 277 279 282 285 285 284 282 282 282 282 282 283 285 285 284 283 283 281 278 275 273
225 226 226 227 228 229 231 231 231 230 230 230 230 230 229 227 225 225 227 230 233 235 235 234 232 230 228 226 224 224 224 223 221 219 221 223 225 227 231 235 238 242 245 245 246 247 249 251 253 255 258 260 262 264 266 268 269 271 272 273 274 274 274 274 275 275 277 280 282 283 282 280 280 280 280 280 283 285 285 284 284 283 282 280 278 275 273
226 227 227 227 228 229 231 231 231 230 229 228 227 228 229 228 226 224 226 228 230 232 233 231 228 225 224 222 220 222 224 222 221 221 222 224 226 227 229 232 235 240 244 246 247 249 251 253 254 256 259 261 263 265 266 268 270 271 272 272 272 273 273 273 274 276 278 281 281 280 278 277 278 278 279 281 284 285 285 285 285 284 282 279 276 273 272
226 226 227 227 228 228 229 229 228 228 227 226 225 227 229 230 228 223 221 222 225 227 230 230 226 221 218 214 213 218 222 221 219 221 223 225 227 228 230 233 236 239 243 247 249 252 254 255 256 258 261 263 264 266 267 268 269 270 270 271 270 271 272 273 274 277 279 279 278 276 275 276 277 278 280 282 284 285 285 285 285 283 281 277 273 271 271
225 225 225 225 225 226 226 225 225 225 226 226 227 229 232 233 228 220 217 219 222 226 229 231 229 224 220 216 215 219 223 223 221 221 222 224 227 228 231 234 237 240 243 247 250 252 254 257 259 261 262 263 264 265 267 268 268 269 269 269 269 270 271 273 275 277 277 276 275 275 276 277 278 279 281 283 284 284 285 285 283 281 278 275 272 271 271
222 223 223 222 223 223 223 223 224 225 227 229 229 231 234 234 228 223 223 226 228 229 230 232 232 230 227 224 221 222 224 226 225 225 225 227 228 230 232 234 237 240 243 246 248 250 253 256 258 260 261 262 263 265 266 267 267 267 268 268 269 270 272 274 275 275 274 274 275 276 277 278 279 280 281 283 284 285 285 283 281 278 276 274 272 271 271
220 221 222 223 223 223 223 223 223 225 228 229 230 230 233 234 233 232 234 235 236 237 236 234 233 231 229 228 228 227 228 229 228 228 229 230 232 233 234 236 238 240 242 245 247 250 253 255 257 259 260 262 263 264 265 266 266 266 267 268 269 271 272 273 273 273 274 275 276 277 277 278 279 280 282 283 284 284 283 281 279 277 276 274 273 272 272
218 217 219 221 222 222 222 222 221 223 225 226 228 228 230 232 234 235 236 237 239 241 240 237 236 234 232 231 231 231 232 234 233 232 232 233 234 235 236 237 239 241 243 245 248 250 253 255 257 259 260 262 263 263 264 265 266 267 268 269 270 271 272 272 273 274 275 276 276 277 277 278 280 281 282 283 283 283 281 280 278 277 276 275 274 273 273
215 214 215 217 219 219 219 219 218 219 220 222 225 226 228 231 232 234 234 233 232 234 237 237 237 238 237 236 235 234 234 236 237 236 236 236 236 237 238 239 241 243 245 247 249 251 253 255 256 258 259 260 261 262 263 264 266 267 268 269 269 270 271 272 274 274 275 276 277 278 279 280 281 282 282 283 282 281 280 280 279 278 277 277 276 275 275
213 213 213 214 216 218 219 218 217 216 217 220 222 224 227 230 231 232 233 231 231 234 238 239 238 239 239 239 239 238 237 237 237 237 236 236 236 237 238 240 242 244 246 248 250 251 253 254 256 257 258 259 260 261 263 264 265 266 267 268 270 271 272 273 274 275 276 277 278 279 280 281 282 282 282 281 281 280 280 280 280 279 279 278 278 277 277
213 213 213 213 214 216 217 217 216 215 215 217 219 221 224 228 230 231 232 233 235 239 242 242 241 241 241 241 240 240 240 240 240 240 239 238 237 238 239 241 243 245 246 248 250 252 253 254 255 256 257 258 260 261 263 264 266 267 269 270 272 272 273 274 275 276 278 279 280 281 282 282 282 281 281 280 280 280 280 280 280 280 279 279 279 279 279
215 216 216 216 216 217 219 219 217 216 217 217 218 220 222 225 228 230 231 233 235 238 241 242 242 242 242 241 239 239 241 242 243 244 245 243 242 243 244 245 246 247 249 250 252 253 253 254 255 256 257 258 260 262 264 266 268 270 271 272 273 274 275 276 277 279 279 280 281 282 282 281 281 281 281 281 281 281 280 280 280 280 280 280 280 280 280
211 214 216 218 219 220 221 221 219 219 220 221 220 221 222 225 227 229 231 232 235 237 239 241 242 242 241 240 238 238 239 241 242 246 249 249 248 248 248 248 249 249 250 251 252 253 254 255 256 257 258 261 263 266 268 270 271 272 273 274 275 276 278 279 279 280 280 280 281 281 281 281 281 281 281 281 281 281 281 281 281 281 281 281 281 281 281
205 209 211 214 216 217 218 219 218 219 220 222 222 222 223 225 227 229 230 232 234 236 238 239 240 240 240 240 240 239 240 242 244 247 250 252 251 250 249 250 250 250 250 251 253 255 257 259 260 262 264 266 268 270 271 272 273 274 275 276 277 278 278 279 279 279 279 280 280 280 281 281 281 281 281 281 281 282 282 282 282 282 282 283 283 283 283
208 211 212 214 214 215 215 216 217 219 221 223 224 224 225 226 228 229 231 232 233 234 235 236 237 238 239 240 241 241 242 243 245 247 249 251 252 252 251 252 253 254 255 256 257 259 261 263 265 267 269 270 270 271 272 273 273 274 276 277 277 277 278 278 278 279 279 280 280 280 280 280 280 281 281 282 282 282 283 283 283 284 284 284 284 284 284
211 212 214 216 217 218 216 215 217 220 223 225 227 227 227 228 228 229 230 231 232 233 234 235 235 236 237 239 240 241 242 243 244 246 248 250 251 252 254 255 256 257 258 259 260 261 263 264 266 268 269 270 271 272 273 273 274 275 275 276 277 278 279 280 280 280 280 280 280 280 280 280 281 281 281 282 282 283 283 283 283 284 284 284 284 284 284
214 214 214 214 215 218 219 218 219 221 223 225 226 227 227 228 228 228 229 230 231 232 233 234 235 236 237 238 239 240 241 242 243 245 246 248 250 251 253 254 255 256 257 259 260 262 263 265 266 268 269 271 272 273 274 275 275 275 276 276 277 278 279 280 280 280 280 280 280 280 280 280 281 281 282 282 283 283 283 284 284 284 284 284 284 284 284
223 222 220 217 216 216 218 219 220 220 221 222 222 223 224 225 226 226 226 227 228 229 230 231 233 234 235 236 237 237 238 240 241 243 245 246 248 250 251 253 254 256 258 260 262 264 266 267 268 269 270 271 272 273 274 275 275 276 276 277 277 277 278 278 278 278 279 279 279 280 280 281 281 282 282 283 283 283 284 284 284 284 284 284 284 284 285
230 230 229 227 224 222 220 220 220 220 220 221 221 222 222 222 222 222 223 224 225 227 228 230 231 232 233 234 235 237 238 239 241 242 244 246 248 250 252 254 256 259 261 263 265 267 268 269 269 269 270 270 271 272 274 275 276 276 277 277 277 277 277 277 278 278 279 279 279 280 280 281 282 282 283 283 283 284 284 284 285 285 285 285 285 285 286
236 235 235 235 233 230 228 226 225 224 223 223 223 223 223 223 223 224 224 225 226 228 229 230 232 233 235 236 238 240 241 242 243 244 246 247 249 252 254 256 259 261 263 265 267 268 269 269 269 269 269 270 271 272 274 275 276 277 278 278 278 279 279 279 279 279 280 280 280 281 282 282 282 283 283 283 284 284 285 285 285 285 286 286 286 286 286
239 239 239 239 238 237 236 234 232 231 230 229 229 228 228 228 228 229 229 230 231 232 233 234 235 237 238 239 241 242 243 244 245 246 247 249 251 254 256 259 261 263 265 266 267 267 267 268 268 269 269 270 272 273 274 275 276 278 279 280 281 281 281 281 281 281 281 282 282 283 283 283 284 284 284 285 285 285 285 286 286 286 286 287 287 287 287
241 240 240 240 240 240 240 239 238 237 236 236 236 235 234 234 233 233 233 234 235 236 237 238 240 240 241 242 242 243 245 246 247 248 250 252 255 257 259 261 262 264 265 265 265 266 266 267 268 269 270 271 272 273 274 276 277 279 281 281 282 282 281 281 281 282 282 282 283 284 284 284 285 285 285 285 285 286 286 286 286 286 286 287 287 287 287
242 241 241 240 240 240 240 240 240 239 239 239 239 239 238 238 237 237 237 238 238 238 239 241 242 243 243 244 245 246 247 249 250 252 253 255 258 259 260 261 262 263 263 264 265 265 266 267 269 270 271 272 273 275 276 278 279 281 281 282 282 282 282 282 282 282 283 283 284 284 284 284 285 285 285 285 285 285 286 286 286 286 286 286 287 287 287
243 242 242 242 241 241 240 239 239 239 239 239 240 240 240 240 240 240 240 240 241 241 241 242 243 244 245 246 247 248 250 252 253 255 256 258 259 260 260 261 261 262 263 263 265 266 267 268 270 271 272 274 276 277 279 280 281 282 282 282 282 282 282 283 283 283 284 284 284 284 285 285 285 285 285 285 285 285 285 286 286 286 286 286 287 287 287
244 243 243 243 242 242 242 242 241 240 240 240 240 240 240 240 241 241 241 242 242 243 243 244 245 245 246 248 249 251 252 254 255 257 257 258 258 259 260 260 261 262 263 264 265 267 268 270 271 272 274 276 278 279 281 281 282 282 282 282 282 282 283 283 283 284 284 284 284 284 284 284 284 285 285 285 285 286 286 286 286 286 286 287 287 286 285
243 243 243 243 243 244 244 244 243 243 242 241 241 241 241 241 241 241 242 242 243 244 244 245 245 246 247 249 250 251 253 254 255 256 256 257 258 259 259 260 262 263 264 265 266 268 269 271 272 274 276 278 279 280 281 281 281 281 281 282 282 282 283 283 283 283 283 283 283 283 283 283 283 283 284 284 285 285 285 286 286 286 286 286 285 284 283
243 242 242 243 243 244 245 245 244 244 243 242 242 241 241 241 241 241 242 242 243 243 244 244 245 246 247 248 249 250 251 252 253 254 255 256 257 258 260 261 262 263 264 266 267 269 271 272 274 275 277 278 279 279 280 280 280 281 282 282 282 282 282 282 282 282 282 282 282 282 282 282 282 282 282 282 283 284 284 284 284 284 283 282 282 282 283
245 244 243 243 243 243 243 243 243 243 243 242 241 240 240 240 240 240 240 241 242 242 243 243 244 245 246 247 248 249 250 251 252 254 255 256 258 259 260 261 262 263 265 267 268 270 272 273 274 276 277 277 278 279 279 280 281 282 282 282 281 282 281 281 282 282 281 281 281 281 281 281 281 281 281 281 282 282 282 281 281 280 281 281 282 282 283
245 244 243 243 242 242 242 242 242 242 241 241 240 239 239 238 238 238 238 239 240 241 241 242 243 244 245 246 247 248 249 251 252 254 255 257 258 259 260 261 263 264 266 267 269 270 272 273 274 275 276 277 278 279 280 281 282 282 281 281 281 281 281 281 281 280 280 280 280 279 279 279 279 280 280 279 279 279 279 279 279 280 281 282 283 284 284
244 243 242 242 242 242 242 242 242 242 242 241 240 240 239 239 238 238 238 239 239 240 241 242 242 243 244 245 246 247 249 250 251 253 254 256 257 259 260 261 263 264 265 267 268 270 271 272 274 275 276 278 279 280 280 281 281 280 281 281 280 280 280 279 279 278 278 278 278 278 279 279 279 279 278 278 277 277 278 279 280 280 281 282 282 283 284
240 239 239 239 239 239 240 241 241 242 242 242 241 240 239 239 238 238 238 238 239 239 240 240 241 242 243 244 245 246 247 249 250 251 253 254 256 257 259 260 262 263 265 266 268 269 271 272 274 275 277 278 279 279 279 279 279 279 279 279 279 278 278 278 277 277 276 276 276 276 277 277 278 279 279 280 280 281 281 281 281 282 282 282 283 283 284
233 233 232 232 233 234 234 236 237 238 238 239 239 238 238 237 236 236 236 236 237 237 238 238 239 240 241 242 243 244 246 247 248 250 251 253 254 256 258 260 262 263 265 266 268 270 271 273 274 275 276 276 277 277 277 277 277 277 277 276 276 276 276 276 276 276 276 276 276 276 276 277 278 279 280 281 282 283 283 283 282 282 283 284 285 285 286
228 227 227 227 228 229 230 231 232 234 234 234 233 233 233 233 233 233 234 234 235 235 236 236 237 238 239 241 242 243 245 246 248 250 252 253 255 257 259 260 262 263 265 266 268 269 270 272 272 273 274 274 274 274 274 274 274 274 274 274 274 273 273 273 273 274 275 276 277 278 279 280 280 280 280 280 280 280 281 282 282 283 284 284 285 287 288
227 224 222 220 220 220 221 222 224 226 227 227 226 224 224 225 226 227 227 228 229 231 232 233 234 235 236 238 240 241 243 245 247 249 250 252 254 255 257 259 260 262 264 265 266 267 268 270 270 271 271 271 271 271 271 271 270 270 270 271 271 271 272 272 273 274 276 277 278 279 279 280 280 280 280 280 280 281 281 282 283 284 285 286 286 288 289
221 215 212 212 214 214 214 212 212 212 213 213 213 213 213 215 216 217 219 220 222 223 225 227 229 230 232 233 235 237 239 241 243 245 247 249 251 253 255 257 258 260 261 263 264 265 266 267 268 268 268 267 267 266 266 265 265 266 267 268 270 272 274 275 276 277 277 278 278 278 278 278 278 278 279 280 281 282 282 283 284 285 286 287 288 290 291
195 189 191 198 204 206 204 201 201 202 202 201 201 201 203 206 207 208 209 211 213 215 217 220 222 224 227 228 230 233 235 237 240 242 244 246 249 251 252 254 256 257 259 260 261 262 262 262 262 261 261 260 260 261 261 263 264 266 269 271 273 274 276 277 277 277 277 277 276 276 277 277 277 278 278 279 280 282 283 284 285 286 287 288 289 290 291
125 129 136 147 159 167 171 174 180 185 187 189 191 193 195 198 200 200 201 202 204 206 209 212 214 217 220 223 225 228 231 233 236 239 241 243 246 247 249 251 252 253 254 255 255 255 255 255 255 255 256 257 259 262 264 267 269 271 273 274 275 275 275 276 276 276 276 276 276 277 277 278 278 279 280 281 282 283 283 284 285 285 286 287 287 288 289
104 107 109 113 115 118 122 128 135 143 150 159 168 177 183 189 193 195 195 196 198 201 203 206 210 213 216 219 223 225 228 231 233 236 238 240 242 243 244 245 246 247 247 248 249 250 251 253 255 257 260 262 265 267 269 270 271 272 272 273 273 273 273 274 275 276 277 278 279 280 281 282 282 283 284 284 285 285 285 285 285 285 286 286 287 288 289
102 106 108 110 110 111 113 115 116 119 123 130 139 149 158 165 173 179 183 186 190 194 198 202 205 209 212 215 218 221 224 226 228 230 232 233 235 237 238 240 241 244 246 248 250 252 255 258 261 263 264 266 266 267 268 268 269 270 270 271 271 272 274 275 277 279 280 281 283 284 285 286 286 287 287 287 286 286 286 286 286 287 288 289 290 290 291
103 108 110 109 110 113 116 118 118 120 124 128 132 137 143 148 154 160 166 172 177 183 188 192 196 200 204 208 211 215 217 220 223 225 227 230 233 236 238 241 243 246 250 253 255 258 260 261 262 263 264 264 265 266 267 268 269 270 272 273 275 276 278 280 281 282 284 285 285 286 287 288 288 289 289 289 289 289 288 289 290 291 292 293 293 294 294
106 110 112 112 113 117 120 122 124 127 131 135 139 144 148 153 158 162 167 172 178 182 187 191 194 198 203 207 211 215 218 221 224 227 231 234 237 241 244 246 249 251 253 255 257 258 259 260 261 263 264 266 268 269 271 272 274 276 278 279 281 282 283 284 285 286 286 287 288 289 290 290 291 292 292 293 292 293 293 294 295 295 295 295 295 296 296
Height
10449 10456 10461 10466 10470 10474 10478 10482 10484 10487 10491 10496 10500 10503 10507 10511 10515 10520 10526 10531 10536 10539 10541 10542 10545 10547 10548 10550 10551 10554 10558 10562 10565 10567 10569 10571 10576 10581 10583 10584 10585 10586 10588 10590 10591 10593 10594 10595 10596 10596 10595 10595 10596 10598 10599 10600 10600 10601 10601 10601 10601 10600 10599 10599 10600 10600 10599 10599 10598 10598 10597 10596 10596 10594 10593 10592 10591 10590 10589 10588 10588 10587 10587 10587 10587 10587 10587
10445 10451 10457 10463 10467 10470 10474 10477 10479 10482 10487 10490 10494 10497 10501 10505 10509 10513 10517 10522 10527 10530 10532 10534 10536 10539 10540 10542 10545 10549 10553 10556 10559 10561 10563 10566 10572 10576 10577 10577 10577 10579 10582 10585 10587 10588 10589 10590 10590 10588 10588 10589 10591 10593 10594 10595 10595 10596 10596 10596 10596 10595 10594 10594 10594 10594 10594 10594 10593 10593 10592 10591 10590 10589 10588 10587 10586 10584 10583 10582 10582 10582 10582 10581 10581 10581 10581
10439 10446 10453 10459 10463 10466 10470 10473 10476 10479 10483 10486 10489 10492 10496 10500 10503 10506 10510 10515 10519 10521 10523 10525 10527 10530 10532 10535 10539 10542 10546 10549 10551 10554 10557 10560 10565 10568 10568 10569 10570 10573 10577 10581 10583 10583 10583 10583 10582 10581 10582 10584 10586 10588 10589 10589 10590 10591 10591 10591 10590 10589 10589 10589 10589 10589 10589 10589 10588 10588 10587 10586 10584 10583 10582 10581 10580 10579 10578 10577 10576 10576 10576 10576 10576 10576 10576
10436 10442 10449 10454 10457 10461 10465 10469 10472 10476 10479 10482 10485 10489 10492 10494 10497 10500 10504 10508 10511 10513 10514 10515 10517 10519 10522 10526 10530 10534 10538 10542 10545 10547 10550 10553 10557 10559 10560 10562 10565 10569 10574 10576 10577 10576 10576 10575 10575 10575 10577 10579 10582 10583 10583 10584 10585 10586 10586 10586 10585 10584 10583 10583 10584 10583 10583 10583 10583 10582 10581 10580 10579 10578 10576 10575 10574 10573 10572 10572 10571 10571 10571 10570 10570 10570 10570
10432 10438 10443 10447 10449 10453 10459 10464 10468 10471 10474 10478 10481 10484 10487 10489 10491 10495 10499 10502 10503 10504 10505 10506 10508 10511 10514 10518 10522 10525 10530 10534 10538 10540 10542 10545 10548 10550 10553 10556 10561 10566 10568 10569 10569 10568 10568 10568 10569 10569 10571 10574 10577 10578 10578 10578 10580 10581 10581 10581 10580 10578 10578 10578 10578 10578 10578 10578 10578 10577 10576 10575 10574 10572 10570 10569 10568 10567 10567 10566 10566 10565 10565 10565 10564 10564 10565
10427 10432 10436 10438 10442 10448 10455 10459 10462 10465 10468 10471 10475 10478 10481 10484 10487 10490 10493 10494 10495 10496 10497 10499 10501 10503 10506 10510 10514 10520 10526 10531 10533 10533 10535 10538 10541 10544 10547 10551 10557 10561 10562 10562 10561 10561 10561 10562 10563 10563 10566 10570 10572 10573 10573 10573 10574 10575 10575 10575 10574 10573 10572 10572 10572 10573 10573 10573 10572 10572 10571 10570 10568 10567 10565 10564 10563 10562 10561 10561 10560 10560 10560 10559 10559 10559 10560
10423 10427 10429 10433 10440 10446 10450 10453 10456 10459 10461 10465 10469 10472 10475 10479 10482 10483 10485 10487 10488 10489 10490 10492 10494 10496 10499 10503 10509 10516 10522 10526 10526 10525 10528 10532 10536 10539 10543 10548 10553 10555 10555 10554 10554 10555 10555 10556 10557 10558 10562 10565 10567 10568 10568 10568 10569 10570 10570 10569 10569 10568 10567 10567 10567 10567 10567 10567 10567 10567 10566 10564 10563 10561 10560 10559 10557 10557 10556 10555 10554 10554 10554 10554 10554 10554 10554
10418 10422 10426 10432 10437 10441 10445 10449 10452 10454 10456 10459 10463 10467 10471 10474 10475 10477 10480 10481 10481 10482 10485 10487 10488 10490 10493 10497 10502 10508 10512 10514 10516 10518 10522 10527 10530 10533 10538 10542 10546 10548 10547 10547 10547 10547 10548 10550 10551 10554 10558 10560 10561 10562 10562 10562 10563 10563 10564 10564 10563 10563 10562 10562 10561 10561 10562 10562 10561 10561 10559 10558 10557 10556 10555 10553 10552 10551 10550 10549 10549 10548 10548 10548 10548 10548 10548
10413 10416 10421 10427 10431 10434 10440 10443 10445 10446 10450 10453 10457 10461 10464 10467 10468 10471 10474 10475 10475 10477 10479 10481 10482 10485 10488 10491 10495 10499 10503 10506 10509 10513 10517 10520 10523 10527 10531 10534 10538 10541 10540 10539 10539 10540 10542 10545 10548 10551 10553 10554 10555 10555 10556 10556 10557 10557 10558 10558 10558 10557 10557 10556 10556 10555 10556 10556 10555 10554 10553 10552 10551 10550 10549 10548 10547 10546 10545 10544 10543 10542 10541 10542 10542 10543 10543
10408 10411 10416 10421 10425 10430 10433 10435 10436 10440 10444 10448 10450 10454 10457 10460 10463 10466 10468 10469 10470 10472 10473 10475 10477 10479 10483 10487 10489 10492 10496 10500 10504 10507 10510 10513 10516 10520 10523 10527 10531 10534 10533 10532 10533 10536 10539 10542 10545 10547 10547 10548 10548 10548 10549 10550 10551 10551 10552 10552 10552 10552 10551 10551 10550 10550 10549 10549 10549 10548 10547 10546 10545 10544 10544 10543 10542 10541 10539 10538 10537 10536 10535 10535 10535 10536 10537
10404 10408 10413 10417 10421 10424 10426 10427 10431 10436 10440 10442 10445 10449 10452 10456 10459 10461 10463 10465 10466 10467 10469 10470 10472 10475 10479 10482 10484 10485 10488 10492 10496 10499 10503 10508 10511 10514 10517 10520 10523 10525 10526 10528 10530 10532 10534 10537 10539 10540 10540 10541 10541 10542 10543 10544 10545 10545 10546 10546 10545 10545 10545 10545 10544 10544 10543 10543 10543 10542 10541 10540 10539 10538 10538 10537 10536 10535 10534 10532 10531 10530 10530 10529 10528 10529 10530
10400 10404 10409 10413 10416 10418 10420 10423 10428 10432 10435 10437 10440 10444 10447 10450 10452 10455 10457 10459 10461 10463 10464 10465 10468 10471 10474 10476 10477 10479 10482 10486 10490 10495 10500 10504 10508 10510 10512 10514 10516 10518 10521 10523 10525 10527 10529 10531 10532 10533 10534 10535 10535 10536 10537 10538 10539 10539 10539 10539 10539 10538 10539 10539 10538 10538 10538 10537 10537 10536 10534 10533 10533 10532 10532 10531 10530 10529 10528 10526 10525 10524 10524 10523 10522 10522 10523
10395 10400 10404 10407 10410 10412 10415 10419 10424 10428 10429 10432 10435 10437 10438 10440 10443 10447 10450 10453 10455 10457 10459 10462 10464 10467 10469 10471 10474 10476 10480 10483 10488 10492 10497 10500 10502 10503 10505 10508 10510 10513 10515 10517 10519 10522 10523 10525 10526 10527 10528 10529 10529 10530 10530 10531 10532 10533 10533 10532 10532 10532 10532 10532 10532 10532 10531 10531 10530 10529 10528 10527 10526 10526 10525 10525 10524 10523 10522 10520 10519 10518 10517 10516 10516 10516 10516
10391 10395 10398 10401 10405 10408 10411 10416 10420 10422 10424 10426 10428 10429 10429 10432 10437 10442 10446 10449 10451 10454 10456 10458 10460 10463 10466 10469 10471 10473 10475 10478 10482 10487 10490 10493 10495 10497 10499 10502 10505 10507 10509 10511 10514 10516 10517 10519 10520 10521 10522 10523 10523 10524 10524 10525 10525 10526 10526 10526 10525 10525 10526 10526 10526 10525 10525 10524 10523 10522 10521 10520 10519 10519 10518 10517 10517 10516 10515 10514 10513 10511 10510 10509 10509 10509 10509
10386 10390 10394 10398 10401 10403 10407 10411 10414 10416 10417 10419 10420 10421 10423 10427 10434 10439 10443 10446 10448 10450 10452 10454 10456 10459 10462 10464 10466 10467 10469 10472 10476 10480 10483 10486 10489 10491 10493 10496 10499 10501 10503 10506 10508 10509 10511 10512 10514 10515 10516 10517 10517 10518 10518 10518 10518 10519 10519 10519 10519 10519 10519 10519 10519 10519 10518 10517 10516 10515 10514 10513 10513 10512 10511 10510 10510 10509 10508 10508 10506 10505 10503 10502 10502 10502 10502
10381 10385 10388 10391 10393 10396 10400 10404 10407 10408 10410 10412 10415 10418 10421 10425 10431 10436 10439 10442 10444 10446 10448 10451 10454 10456 10458 10460 10462 10463 10465 10469 10471 10474 10477 10480 10483 10486 10489 10492 10495 10497 10499 10501 10502 10503 10505 10506 10508 10509 10511 10511 10511 10511 10511 10511 10512 10512 10512 10513 10513 10513 10513 10513 10512 10512 10511 10510 10509 10508 10507 10506 10506 10505 10505 10504 10503 10502 10501 10500 10499 10498 10497 10496 10496 10496 10496
10375 10378 10381 10383 10387 10391 10395 10399 10401 10403 10405 10409 10413 10416 10418 10422 10428 10432 10434 10437 10440 10443 10446 10449 10451 10454 10456 10458 10459 10461 10463 10466 10468 10470 10472 10475 10478 10482 10485 10488 10491 10493 10494 10495 10496 10498 10499 10501 10502 10503 10504 10505 10505 10505 10505 10505 10505 10506 10506 10506 10506 10506 10506 10506 10505 10505 10504 10503 10502 10501 10500 10500 10499 10498 10498 10497 10495 10494 10493 10493 10492 10491 10491 10490 10490 10490 10490
10370 10373 10376 10380 10384 10388 10392 10395 10398 10400 10404 10407 10411 10414 10416 10419 10424 10427 10430 10434 10437 10439 10443 10446 10448 10451 10453 10455 10457 10459 10461 10463 10465 10467 10469 10472 10475 10479 10482 10484 10486 10488 10489 10490 10491 10492 10493 10495 10496 10497 10498 10499 10499 10498 10498 10499 10499 10499 10500 10500 10500 10500 10499 10499 10498 10497 10497 10496 10496 10495 10494 10493 10492 10491 10491 10490 10488 10487 10486 10486 10485 10485 10484 10484 10484 10484 10483
10366 10369 10372 10376 10381 10385 10388 10392 10396 10399 10402 10405 10408 10411 10413 10416 10420 10423 10427 10432 10435 10436 10439 10442 10445 10447 10450 10452 10454 10456 10457 10459 10462 10464 10467 10469 10472 10475 10477 10479 10481 10482 10484 10485 10485 10487 10488 10489 10490 10491 10491 10492 10492 10492 10492 10492 10492 10493 10493 10493 10493 10493 10492 10491 10491 10490 10490 10489 10488 10488 10487 10486 10485 10484 10483 10482 10481 10480 10479 10479 10478 10478 10478 10478 10477 10477 10477
10361 10364 10367 10371 10375 10379 10384 10388 10392 10396 10399 10402 10405 10408 10410 10413 10416 10420 10424 10429 10431 10431 10433 10438 10441 10444 10447 10449 10450 10452 10454 10455 10458 10461 10463 10465 10467 10470 10472 10474 10475 10477 10478 10479 10480 10481 10482 10483 10483 10484 10485 10485 10485 10485 10485 10485 10486 10487 10487 10487 10486 10486 10485 10485 10484 10483 10482 10481 10481 10480 10480 10479 10478 10477 10476 10475 10474 10473 10473 10472 10472 10471 10471 10471 10470 10470 10470
10357 10360 10364 10367 10371 10375 10380 10384 10389 10392 10396 10399 10401 10404 10407 10409 10412 10416 10420 10423 10425 10425 10428 10434 10438 10440 10442 10445 10447 10449 10450 10451 10453 10455 10457 10459 10462 10464 10466 10468 10469 10471 10472 10472 10473 10474 10475 10476 10477 10478 10479 10479 10479 10478 10479 10479 10480 10481 10481 10480 10480 10479 10478 10477 10476 10475 10475 10474 10473 10473 10472 10472 10471 10470 10469 10468 10467 10467 10466 10466 10465 10464 10464 10463 10463 10462 10462
10355 10357 10361 10364 10368 10371 10375 10380 10384 10388 10391 10393 10396 10399 10402 10404 10407 10411 10415 10418 10419 10420 10424 10429 10433 10435 10438 10441 10443 10444 10444 10446 10448 10449 10450 10453 10456 10458 10461 10463 10464 10465 10466 10466 10467 10468 10469 10470 10471 10472 10472 10472 10472 10472 10473 10474 10474 10474 10474 10473 10472 10471 10470 10469 10469 10468 10468 10467 10467 10466 10465 10464 10463 10462 10462 10461 10461 10460 10460 10459 10458 10458 10457 10456 10455 10455 10454
10354 10357 10360 10363 10366 10369 10372 10376 10380 10383 10385 10388 10391 10394 10397 10400 10403 10407 10410 10413 10415 10417 10420 10424 10427 10430 10433 10436 10439 10439 10440 10441 10443 10442 10442 10447 10451 10454 10456 10458 10459 10459 10460 10461 10461 10461 10462 10463 10464 10465 10465 10465 10466 10467 10467 10467 10467 10467 10466 10465 10464 10463 10463 10462 10462 10462 10461 10461 10460 10459 10458 10457 10456 10455 10455 10454 10454 10453 10453 10452 10451 10450 10450 10449 10448 10447 10446
10353 10356 10359 10362 10364 10367 10370 10373 10376 10379 10381 10383 10387 10390 10393 10396 10398 10402 10405 10408 10410 10413 10416 10419 10422 10425 10427 10430 10433 10435 10435 10436 10436 10435 10436 10441 10446 10449 10450 10451 10452 10453 10454 10454 10454 10454 10454 10456 10457 10458 10458 10459 10460 10460 10460 10460 10460 10459 10458 10458 10457 10456 10456 10456 10455 10455 10454 10454 10453 10452 10451 10450 10449 10448 10448 10447 10447 10446 10445 10444 10444 10443 10442 10441 10440 10439 10438
10352 10354 10356 10359 10361 10363 10366 10369 10372 10374 10376 10379 10382 10385 10389 10391 10394 10397 10401 10403 10406 10409 10412 10415 10417 10420 10422 10424 10427 10429 10430 10431 10431 10431 10433 10436 10439 10442 10443 10444 10444 10446 10447 10448 10448 10448 10448 10450 10450 10451 10451 10453 10453 10453 10454 10453 10453 10452 10451 10451 10451 10450 10449 10449 10448 10448 10448 10447 10446 10445 10444 10443 10442 10442 10441 10440 10439 10438 10437 10437 10436 10435 10434 10433 10432 10431 10430
10350 10352 10354 10356 10358 10360 10362 10365 10367 10370 10372 10375 10378 10381 10384 10387 10390 10393 10396 10399 10402 10404 10407 10410 10412 10414 10417 10418 10421 10423 10424 10425 10426 10428 10429 10431 10433 10435 10436 10437 10438 10439 10440 10441 10442 10442 10443 10444 10444 10444 10444 10445 10446 10446 10447 10447 10446 10446 10445 10445 10444 10443 10442 10442 10442 10441 10441 10440 10439 10438 10437 10436 10436 10435 10434 10433 10432 10431 10430 10429 10428 10427 10426 10425 10423 10422 10421
10349 10351 10353 10354 10356 10358 10360 10362 10365 10367 10369 10372 10375 10378 10381 10384 10386 10389 10391 10394 10397 10399 10402 10405 10407 10409 10411 10413 10415 10417 10419 10420 10422 10423 10425 10427 10428 10429 10430 10431 10432 10433 10434 10434 10436 10437 10438 10439 10440 10439 10438 10438 10438 10439 10440 10440 10440 10439 10439 10438 10437 10436 10435 10435 10434 10434 10434 10433 10432 10431 10430 10429 10428 10428 10427 10426 10425 10423 10422 10421 10420 10419 10418 10416 10415 10414 10412
10346 10348 10350 10352 10354 10356 10358 10360 10362 10364 10367 10369 10372 10374 10377 10379 10382 10384 10387 10389 10392 10394 10397 10399 10402 10404 10406 10408 10410 10412 10413 10415 10417 10419 10421 10423 10423 10424 10425 10426 10427 10428 10428 10429 10430 10432 10433 10435 10435 10435 10433 10432 10431 10432 10432 10433 10432 10432 10431 10431 10431 10430 10429 10428 10427 10426 10426 10426 10425 10424 10423 10422 10421 10420 10419 10418 10417 10416 10414 10413 10412 10410 10409 10408 10406 10405 10403
10344 10345 10347 10349 10351 10353 10355 10357 10359 10361 10363 10365 10368 10370 10372 10375 10377 10380 10383 10385 10387 10390 10392 10394 10397 10399 10401 10403 10405 10407 10408 10410 10413 10415 10417 10418 10419 10419 10420 10420 10421 10422 10423 10424 10425 10426 10427 10429 10429 10429 10428 10427 10426 10425 10425 10425 10425 10424 10424 10424 10424 10424 10424 10422 10421 10420 10419 10418 10417 10416 10415 10414 10413 10412 10411 10410 10409 10408 10406 10404 10403 10402 10401 10399 10398 10396 10395
10340 10342 10343 10345 10348 10350 10352 10354 10355 10357 10359 10361 10363 10366 10368 10371 10373 10376 10378 10380 10383 10385 10387 10390 10392 10394 10396 10398 10400 10401 10404 10406 10409 10411 10413 10414 10414 10414 10414 10415 10416 10417 10417 10418 10419 10420 10421 10421 10422 10422 10422 10421 10420 10420 10419 10419 10418 10417 10417 10416 10417 10417 10417 10416 10414 10413 10412 10411 10410 10408 10407 10406 10405 10404 10403 10402 10401 10399 10398 10396 10395 10394 10392 10391 10389 10388 10387
10336 10338 10339 10341 10343 10345 10347 10349 10351 10353 10355 10357 10359 10361 10364 10366 10369 10371 10374 10376 10378 10380 10383 10385 10387 10389 10391 10393 10395 10397 10399 10401 10404 10406 10408 10409 10408 10408 10409 10410 10411 10411 10412 10412 10413 10413 10413 10413 10414 10415 10416 10416 10415 10414 10414 10413 10412 10410 10409 10409 10409 10409 10409 10408 10406 10405 10403 10402 10402 10401 10399 10398 10397 10396 10395 10394 10393 10391 10390 10389 10387 10386 10384 10383 10382 10380 10379
10331 10333 10334 10336 10337 10339 10342 10344 10346 10348 10350 10352 10354 10357 10360 10362 10364 10367 10369 10371 10373 10376 10378 10380 10382 10384 10386 10388 10390 10391 10393 10395 10398 10401 10402 10402 10402 10403 10404 10405 10405 10406 10406 10407 10407 10407 10406 10407 10408 10408 10409 10409 10409 10409 10408 10407 10406 10405 10403 10402 10401 10401 10401 10399 10398 10397 10395 10394 10394 10392 10391 10390 10389 10388 10387 10386 10385 10384 10382 10381 10379 10378 10376 10375 10374 10373 10372
10325 10327 10328 10330 10331 10333 10335 10338 10340 10342 10344 10346 10349 10352 10355 10357 10359 10361 10364 10366 10368 10370 10372 10374 10376 10379 10380 10382 10384 10385 10387 10390 10392 10394 10396 10396 10396 10396 10398 10399 10399 10400 10400 10401 10401 10400 10401 10401 10401 10402 10403 10403 10403 10402 10402 10401 10400 10399 10397 10395 10394 10392 10392 10391 10390 10389 10388 10387 10386 10385 10383 10382 10381 10380 10379 10377 10376 10376 10375 10374 10372 10370 10369 10368 10367 10366 10365
10318 10319 10321 10323 10325 10327 10328 10331 10333 10335 10337 10340 10342 10345 10348 10350 10353 10356 10358 10360 10362 10364 10367 10369 10371 10373 10374 10376 10377 10379 10381 10383 10386 10388 10390 10390 10390 10390 10391 10392 10393 10393 10394 10394 10394 10394 10395 10395 10395 10395 10396 10396 10395 10395 10395 10394 10394 10392 10390 10388 10386 10385 10384 10383 10382 10381 10380 10380 10378 10377 10375 10375 10374 10373 10371 10370 10369 10368 10367 10367 10365 10364 10363 10362 10361 10360 10358
10310 10312 10313 10315 10317 10318 10320 10322 10324 10327 10330 10333 10335 10338 10340 10343 10346 10349 10350 10352 10355 10358 10360 10363 10365 10367 10368 10369 10371 10373 10375 10377 10379 10381 10383 10384 10384 10384 10384 10385 10386 10387 10388 10388 10388 10388 10388 10388 10388 10388 10388 10388 10388 10387 10387 10386 10386 10384 10383 10381 10380 10378 10377 10375 10374 10373 10373 10372 10370 10369 10367 10366 10365 10364 10363 10362 10362 10361 10360 10359 10359 10357 10356 10356 10355 10353 10352
10304 10305 10306 10307 10309 10309 10311 10313 10316 10319 10323 10325 10328 10330 10332 10335 10338 10341 10343 10345 10348 10351 10354 10356 10358 10359 10361 10362 10364 10366 10369 10371 10373 10375 10376 10377 10377 10377 10377 10378 10379 10381 10381 10382 10382 10381 10381 10381 10381 10381 10381 10381 10380 10380 10379 10378 10377 10376 10375 10374 10373 10371 10370 10368 10367 10366 10365 10364 10363 10362 10360 10359 10358 10357 10355 10354 10354 10354 10353 10352 10351 10350 10349 10349 10348 10347 10346
10297 10298 10299 10300 10301 10302 10304 10306 10309 10312 10314 10317 10319 10321 10324 10327 10330 10332 10335 10338 10341 10343 10346 10348 10350 10352 10354 10356 10358 10360 10362 10364 10366 10368 10368 10369 10370 10371 10371 10371 10373 10374 10375 10375 10375 10374 10374 10374 10374 10374 10373 10373 10373 10372 10371 10370 10369 10368 10367 10367 10366 10364 10363 10361 10359 10358 10357 10356 10355 10355 10354 10353 10352 10351 10349 10348 10347 10347 10346 10346 10345 10344 10343 10343 10342 10341 10340
10290 10291 10292 10293 10294 10296 10298 10299 10302 10304 10306 10308 10311 10313 10315 10318 10321 10324 10327 10330 10332 10334 10337 10340 10342 10344 10347 10349 10351 10353 10355 10358 10359 10360 10361 10362 10363 10364 10364 10365 10366 10367 10368 10368 10367 10367 10367 10367 10367 10366 10366 10366 10365 10364 10363 10362 10361 10361 10360 10359 10358 10357 10355 10354 10353 10352 10350 10349 10348 10347 10347 10346 10346 10345 10344 10343 10342 10341 10341 10340 10339 10338 10338 10338 10337 10337 10336
10283 10285 10286 10287 10288 10289 10291 10292 10294 10295 10297 10300 10302 10304 10306 10309 10311 10315 10318 10321 10323 10325 10328 10331 10334 10336 10339 10341 10344 10346 10348 10350 10352 10353 10354 10355 10356 10357 10357 10358 10359 10360 10360 10361 10360 10360 10360 10360 10359 10359 10359 10358 10357 10357 10356 10355 10354 10353 10351 10351 10350 10349 10348 10347 10346 10345 10344 10343 10342 10341 10340 10340 10339 10339 10338 10337 10337 10336 10336 10335 10335 10333 10333 10332 10332 10332 10331
10277 10278 10279 10280 10281 10282 10284 10285 10286 10288 10290 10292 10294 10296 10298 10300 10303 10306 10309 10311 10313 10316 10319 10323 10326 10329 10331 10334 10336 10339 10341 10343 10345 10346 10347 10348 10349 10349 10350 10351 10352 10353 10353 10354 10353 10353 10353 10352 10352 10352 10351 10350 10350 10349 10348 10347 10346 10345 10344 10343 10343 10342 10341 10340 10339 10338 10338 10337 10336 10335 10335 10334 10334 10333 10333 10332 10332 10331 10331 10331 10330 10329 10328 10328 10327 10326 10326
10272 10273 10274 10275 10276 10277 10278 10279 10280 10282 10283 10285 10287 10289 10291 10294 10296 10299 10301 10304 10306 10309 10312 10315 10318 10321 10324 10327 10329 10332 10334 10336 10338 10340 10341 10341 10341 10342 10343 10344 10345 10346 10346 10346 10346 10346 10346 10345 10345 10345 10344 10344 10343 10342 10341 10340 10339 10338 10337 10336 10336 10335 10335 10334 10333 10333 10332 10331 10330 10330 10329 10329 10328 10328 10328 10327 10327 10327 10327 10326 10325 10325 10324 10323 10322 10322 10321
10269 10269 10270 10271 10272 10272 10273 10274 10275 10276 10278 10279 10281 10283 10285 10287 10289 10292 10294 10297 10299 10302 10305 10308 10312 10315 10317 10320 10322 10325 10327 10329 10331 10332 10333 10334 10335 10336 10337 10338 10338 10339 10339 10340 10339 10339 10339 10339 10338 10338 10338 10337 10336 10335 10334 10333 10332 10332 10331 10330 10330 10329 10329 10328 10328 10327 10327 10327 10326 10325 10325 10324 10324 10323 10323 10322 10322 10322 10322 10321 10321 10320 10319 10318 10318 10317 10316
10266 10266 10267 10268 10268 10269 10270 10270 10271 10272 10273 10274 10276 10278 10279 10281 10283 10285 10287 10290 10292 10295 10298 10302 10305 10307 10310 10313 10315 10318 10320 10322 10324 10325 10326 10327 10328 10330 10331 10331 10332 10333 10333 10333 10333 10333 10333 10332 10332 10332 10331 10331 10330 10329 10328 10327 10326 10326 10325 10325 10324 10324 10323 10323 10323 10322 10322 10322 10321 10321 10321 10321 10320 10320 10319 10318 10317 10317 10316 10316 10316 10315 10314 10313 10312 10312 10311
10264 10264 10265 10265 10266 10266 10267 10268 10268 10269 10270 10271 10272 10273 10275 10276 10278 10280 10282 10285 10287 10290 10293 10296 10298 10301 10304 10307 10309 10312 10314 10316 10317 10319 10320 10322 10323 10324 10325 10326 10326 10326 10327 10327 10327 10327 10327 10327 10326 10326 10325 10325 10324 10323 10323 10322 10321 10321 10320 10320 10320 10319 10319 10319 10319 10318 10318 10317 10317 10317 10316 10316 10316 10315 10315 10314 10314 10313 10312 10311 10310 10310 10309 10308 10307 10306 10305
10262 10263 10263 10264 10264 10265 10265 10266 10266 10267 10267 10268 10269 10270 10271 10273 10275 10276 10278 10281 10283 10286 10288 10291 10294 10297 10299 10302 10304 10306 10309 10311 10312 10314 10315 10316 10317 10318 10319 10319 10320 10321 10321 10321 10321 10321 10321 10321 10321 10320 10320 10319 10319 10319 10318 10318 10317 10317 10316 10316 10315 10315 10315 10315 10315 10314 10314 10314 10313 10313 10313 10312 10311 10311 10310 10310 10309 10308 10307 10306 10305 10304 10304 10303 10302 10301 10299
10261 10262 10262 10263 10263 10264 10264 10264 10265 10265 10266 10266 10267 10268 10269 10270 10272 10274 10275 10277 10280 10282 10285 10287 10289 10292 10294 10297 10299 10301 10303 10305 10306 10308 10309 10310 10311 10312 10313 10314 10315 10316 10316 10316 10316 10316 10316 10316 10316 10315 10315 10315 10314 10314 10314 10314 10313 10313 10312 10312 10311 10311 10310 10310 10310 10310 10310 10310 10309 10309 10309 10308 10308 10307 10306 10305 10304 10303 10302 10301 10300 10299 10298 10297 10296 10295 10293
10261 10262 10262 10262 10263 10263 10263 10264 10265 10265 10265 10266 10266 10267 10268 10269 10270 10272 10274 10275 10277 10279 10282 10284 10286 10288 10291 10293 10295 10297 10298 10300 10302 10303 10305 10306 10307 10308 10309 10310 10310 10311 10311 10311 10311 10311 10311 10311 10311 10311 10311 10311 10311 10310 10310 10310 10309 10309 10309 10308 10308 10307 10307 10306 10306 10306 10306 10306 10305 10305 10304 10304 10304 10303 10302 10301 10300 10299 10298 10297 10296 10295 10293 10292 10291 10290 10288
10262 10262 10262 10262 10263 10263 10263 10264 10264 10265 10265 10266 10267 10267 10268 10269 10270 10271 10273 10274 10276 10278 10280 10282 10284 10286 10288 10290 10292 10293 10295 10297 10298 10299 10301 10302 10303 10304 10304 10305 10306 10306 10306 10307 10307 10307 10307 10307 10307 10308 10307 10307 10307 10307 10306 10306 10306 10305 10305 10304 10304 10304 10303 10303 10302 10302 10301 10301 10301 10300 10300 10299 10299 10298 10298 10297 10296 10295 10294 10293 10291 10290 10289 10288 10287 10285 10284
10263 10263 10263 10263 10264 10264 10264 10264 10265 10265 10266 10266 10267 10268 10269 10270 10271 10272 10273 10274 10276 10277 10279 10281 10282 10284 10286 10288 10289 10291 10292 10294 10295 10296 10297 10298 10299 10300 10301 10301 10302 10302 10303 10303 10304 10304 10304 10304 10304 10304 10304 10304 10303 10303 10303 10302 10302 10302 10301 10301 10300 10300 10299 10299 10298 10298 10297 10296 10296 10295 10295 10294 10293 10293 10292 10292 10291 10290 10289 10288 10286 10285 10284 10283 10282 10281 10279
10265 10265 10265 10265 10265 10265 10265 10266 10266 10266 10267 10268 10268 10269 10270 10271 10271 10272 10273 10275 10276 10277 10279 10280 10282 10283 10285 10286 10288 10289 10290 10291 10293 10294 10294 10295 10296 10297 10298 10298 10299 10299 10300 10300 10300 10301 10301 10300 10300 10300 10300 10300 10300 10299 10299 10299 10298 10298 10297 10297 10296 10296 10295 10295 10294 10293 10293 10292 10291 10291 10290 10289 10288 10288 10287 10286 10286 10284 10283 10282 10281 10280 10279 10277 10276 10274 10273
10267 10267 10266 10266 10267 10267 10267 10267 10268 10268 10269 10269 10270 10270 10271 10272 10273 10274 10274 10276 10277 10278 10279 10280 10282 10283 10284 10285 10287 10288 10289 10290 10291 10292 10293 10293 10294 10295 10295 10296 10296 10297 10297 10297 10297 10297 10297 10297 10297 10297 10296 10296 10296 10296 10295 10295 10294 10294 10293 10293 10292 10292 10291 10291 10290 10289 10288 10288 10287 10286 10285 10284 10284 10283 10282 10281 10280 10279 10278 10277 10275 10274 10273 10272 10270 10268 10266
10268 10268 10268 10268 10268 10269 10269 10269 10269 10270 10270 10271 10271 10272 10272 10273 10274 10275 10276 10276 10277 10278 10279 10281 10282 10283 10284 10285 10286 10287 10288 10289 10289 10290 10291 10291 10292 10292 10293 10293 10293 10294 10294 10294 10294 10294 10294 10294 10293 10293 10293 10292 10292 10292 10291 10291 10291 10290 10289 10289 10288 10288 10287 10286 10286 10285 10284 10283 10283 10282 10281 10280 10279 10278 10277 10276 10275 10273 10272 10271 10270 10269 10267 10266 10264 10262 10260